Time,TemperatureF,DewpointF,PressureIn,WindDirection,WindDirectionDegrees,WindSpeedMPH,WindSpeedGustMPH,Humidity,HourlyPrecipIn,Conditions,Clouds,dailyrainin,SoftwareType,DateUTC
2013-05-21 00:02:00,62.5,53.3,29.72,West,281,3.0,7.3,71,0.00,,,-99.99,Meteorologica,2013-05-21 05:02:00,
2013-05-21 00:07:00,62.5,53.4,29.72,WSW,255,1.2,3.5,71,0.00,,,-99.99,Meteorologica,2013-05-21 05:07:00,
2013-05-21 00:12:00,62.4,53.3,29.72,WNW,287,0.2,8.6,71,0.00,,,-99.99,Meteorologica,2013-05-21 05:12:00,
2013-05-21 00:17:00,62.3,53.7,29.72,West,271,1.7,6.5,73,0.00,,,-99.99,Meteorologica,2013-05-21 05:17:00,
2013-05-21 00:22:00,62.0,53.5,29.72,WSW,256,0.0,0.0,73,0.00,,,-99.99,Meteorologica,2013-05-21 05:22:00,
2013-05-21 00:27:00,61.7,53.5,29.72,WSW,256,0.0,0.0,74,0.00,,,-99.99,Meteorologica,2013-05-21 05:27:00,
2013-05-21 00:32:00,61.5,53.5,29.72,WSW,242,0.0,5.0,74,0.00,,,-99.99,Meteorologica,2013-05-21 05:32:00,
2013-05-21 00:37:00,61.3,53.3,29.72,West,273,0.0,3.3,74,0.00,,,-99.99,Meteorologica,2013-05-21 05:37:00,
2013-05-21 00:42:00,61.1,53.4,29.72,West,273,0.0,0.0,75,0.00,,,-99.99,Meteorologica,2013-05-21 05:42:00,
2013-05-21 00:47:00,60.9,53.3,29.73,West,273,0.0,0.0,75,0.00,,,-99.99,Meteorologica,2013-05-21 05:47:00,
2013-05-21 00:52:00,60.7,53.5,29.73,WNW,286,0.0,0.0,76,0.00,,,-99.99,Meteorologica,2013-05-21 05:52:00,
2013-05-21 00:57:00,60.4,53.4,29.73,West,263,3.1,4.8,77,0.00,,,-99.99,Meteorologica,2013-05-21 05:57:00,
2013-05-21 01:02:00,60.4,53.3,29.73,West,268,0.0,0.0,77,0.00,,,-99.99,Meteorologica,2013-05-21 06:02:00,
2013-05-21 01:07:00,60.2,53.3,29.73,West,268,0.0,0.0,78,0.00,,,-99.99,Meteorologica,2013-05-21 06:07:00,
2013-05-21 01:12:00,60.1,53.3,29.73,West,275,0.2,3.2,78,0.00,,,-99.99,Meteorologica,2013-05-21 06:12:00,
2013-05-21 01:17:00,60.0,53.3,29.74,West,273,0.0,0.0,78,0.00,,,-99.99,Meteorologica,2013-05-21 06:17:00,
2013-05-21 01:22:00,59.8,53.5,29.73,WNW,290,4.2,7.4,79,0.00,,,-99.99,Meteorologica,2013-05-21 06:22:00,
2013-05-21 01:27:00,59.8,53.4,29.74,WNW,283,2.2,4.7,79,0.00,,,-99.99,Meteorologica,2013-05-21 06:27:00,
2013-05-21 01:32:00,59.7,53.6,29.74,WNW,285,4.7,8.0,80,0.00,,,-99.99,Meteorologica,2013-05-21 06:32:00,
2013-05-21 01:37:00,59.7,53.5,29.74,WSW,249,4.7,8.1,79,0.00,,,-99.99,Meteorologica,2013-05-21 06:37:00,
2013-05-21 01:42:00,59.7,53.5,29.73,SW,227,4.6,10.4,79,0.00,,,-99.99,Meteorologica,2013-05-21 06:42:00,
2013-05-21 01:47:00,59.7,53.6,29.73,West,272,2.6,7.0,80,0.00,,,-99.99,Meteorologica,2013-05-21 06:47:00,
2013-05-21 01:52:00,59.7,53.6,29.74,West,269,0.3,6.7,80,0.00,,,-99.99,Meteorologica,2013-05-21 06:52:00,
2013-05-21 01:57:00,59.7,53.8,29.73,WNW,288,5.4,7.3,80,0.00,,,-99.99,Meteorologica,2013-05-21 06:57:00,
2013-05-21 02:02:00,59.7,53.7,29.73,WNW,282,4.2,6.6,80,0.00,,,-99.99,Meteorologica,2013-05-21 07:02:00,
2013-05-21 02:07:00,59.8,53.7,29.73,WSW,238,3.9,9.5,80,0.00,,,-99.99,Meteorologica,2013-05-21 07:07:00,
2013-05-21 02:12:00,59.9,54.0,29.73,WNW,292,1.3,9.1,80,0.00,,,-99.99,Meteorologica,2013-05-21 07:12:00,
2013-05-21 02:17:00,59.9,54.0,29.73,WNW,295,5.3,11.2,80,0.00,,,-99.99,Meteorologica,2013-05-21 07:17:00,
2013-05-21 02:22:00,59.9,54.1,29.73,West,267,4.5,8.2,80,0.00,,,-99.99,Meteorologica,2013-05-21 07:22:00,
2013-05-21 02:27:00,60.0,54.3,29.74,WSW,244,3.5,7.7,81,0.00,,,-99.99,Meteorologica,2013-05-21 07:27:00,
2013-05-21 02:32:00,60.0,54.3,29.73,WNW,293,5.2,8.3,81,0.00,,,-99.99,Meteorologica,2013-05-21 07:32:00,
2013-05-21 02:37:00,60.0,54.3,29.73,West,272,3.4,6.9,81,0.00,,,-99.99,Meteorologica,2013-05-21 07:37:00,
2013-05-21 02:42:00,60.0,54.4,29.74,West,263,3.9,7.3,81,0.00,,,-99.99,Meteorologica,2013-05-21 07:42:00,
2013-05-21 02:47:00,59.9,54.4,29.73,WNW,298,3.9,8.6,81,0.00,,,-99.99,Meteorologica,2013-05-21 07:47:00,
2013-05-21 02:52:00,59.6,54.2,29.73,WNW,296,3.2,5.4,82,0.00,,,-99.99,Meteorologica,2013-05-21 07:52:00,
2013-05-21 02:57:00,59.4,54.2,29.73,WSW,237,1.7,7.5,82,0.00,,,-99.99,Meteorologica,2013-05-21 07:57:00,
2013-05-21 03:02:00,59.3,54.4,29.73,WNW,291,4.4,6.8,83,0.00,,,-99.99,Meteorologica,2013-05-21 08:02:00,
2013-05-21 03:07:00,59.2,54.4,29.74,WSW,237,2.5,6.2,84,0.00,,,-99.99,Meteorologica,2013-05-21 08:07:00,
2013-05-21 03:12:00,59.0,54.5,29.73,WNW,298,5.1,7.1,84,0.00,,,-99.99,Meteorologica,2013-05-21 08:12:00,
2013-05-21 03:17:00,58.9,54.4,29.73,WSW,252,2.4,6.1,85,0.00,,,-99.99,Meteorologica,2013-05-21 08:17:00,
2013-05-21 03:22:00,58.7,54.4,29.73,WNW,301,4.4,5.7,85,0.00,,,-99.99,Meteorologica,2013-05-21 08:22:00,
2013-05-21 03:27:00,58.7,54.3,29.73,West,275,0.0,4.3,85,0.00,,,-99.99,Meteorologica,2013-05-21 08:27:00,
2013-05-21 03:32:00,58.4,54.1,29.73,WSW,252,1.4,5.8,85,0.00,,,-99.99,Meteorologica,2013-05-21 08:32:00,
2013-05-21 03:37:00,58.2,54.1,29.73,West,266,0.2,5.5,86,0.00,,,-99.99,Meteorologica,2013-05-21 08:37:00,
2013-05-21 03:42:00,58.0,54.0,29.73,West,277,2.9,5.6,86,0.00,,,-99.99,Meteorologica,2013-05-21 08:42:00,
2013-05-21 03:47:00,57.9,54.1,29.73,SW,231,0.0,4.5,87,0.00,,,-99.99,Meteorologica,2013-05-21 08:47:00,
2013-05-21 03:52:00,57.7,54.1,29.73,WNW,287,3.2,5.6,87,0.00,,,-99.99,Meteorologica,2013-05-21 08:52:00,
2013-05-21 03:57:00,57.5,54.1,29.73,West,278,4.8,5.8,88,0.00,,,-99.99,Meteorologica,2013-05-21 08:57:00,
2013-05-21 04:02:00,57.5,54.0,29.72,West,281,4.2,6.9,88,0.00,,,-99.99,Meteorologica,2013-05-21 09:02:00,
2013-05-21 04:07:00,57.5,54.1,29.73,WNW,287,2.3,6.7,88,0.00,,,-99.99,Meteorologica,2013-05-21 09:07:00,
2013-05-21 04:12:00,57.6,54.1,29.73,WSW,244,1.4,5.5,88,0.00,,,-99.99,Meteorologica,2013-05-21 09:12:00,
2013-05-21 04:17:00,57.4,53.9,29.73,WNW,290,2.7,5.6,88,0.00,,,-99.99,Meteorologica,2013-05-21 09:17:00,
2013-05-21 04:22:00,57.3,54.0,29.74,SW,221,2.3,7.5,88,0.00,,,-99.99,Meteorologica,2013-05-21 09:22:00,
2013-05-21 04:27:00,57.2,54.0,29.73,SW,215,2.8,4.7,89,0.00,,,-99.99,Meteorologica,2013-05-21 09:27:00,
2013-05-21 04:32:00,57.1,54.0,29.73,SW,217,2.1,5.2,89,0.00,,,-99.99,Meteorologica,2013-05-21 09:32:00,
2013-05-21 04:37:00,57.0,54.0,29.73,WSW,241,3.3,5.0,89,0.00,,,-99.99,Meteorologica,2013-05-21 09:37:00,
2013-05-21 04:42:00,56.9,53.8,29.74,WSW,252,0.3,2.4,89,0.00,,,-99.99,Meteorologica,2013-05-21 09:42:00,
2013-05-21 04:47:00,56.9,53.8,29.74,WNW,303,4.0,7.6,89,0.00,,,-99.99,Meteorologica,2013-05-21 09:47:00,
2013-05-21 04:52:00,56.8,53.7,29.74,West,268,1.2,3.3,89,0.00,,,-99.99,Meteorologica,2013-05-21 09:52:00,
2013-05-21 04:57:00,56.7,53.7,29.74,West,262,3.3,5.6,89,0.00,,,-99.99,Meteorologica,2013-05-21 09:57:00,
2013-05-21 05:02:00,56.7,53.6,29.74,WNW,294,3.8,5.1,89,0.00,,,-99.99,Meteorologica,2013-05-21 10:02:00,
2013-05-21 05:07:00,56.6,53.6,29.73,WSW,254,0.0,0.0,89,0.00,,,-99.99,Meteorologica,2013-05-21 10:07:00,
2013-05-21 05:12:00,56.4,53.4,29.74,WSW,254,0.0,0.0,89,0.00,,,-99.99,Meteorologica,2013-05-21 10:12:00,
2013-05-21 05:17:00,56.2,53.3,29.74,WSW,254,0.0,0.0,90,0.00,,,-99.99,Meteorologica,2013-05-21 10:17:00,
2013-05-21 05:22:00,56.0,53.1,29.75,WSW,254,0.0,0.0,90,0.00,,,-99.99,Meteorologica,2013-05-21 10:22:00,
2013-05-21 05:27:00,55.7,52.9,29.75,WSW,254,0.0,0.0,90,0.00,,,-99.99,Meteorologica,2013-05-21 10:27:00,
2013-05-21 05:32:00,55.5,52.7,29.75,WSW,254,0.0,0.0,90,0.00,,,-99.99,Meteorologica,2013-05-21 10:32:00,
2013-05-21 05:37:00,55.2,52.5,29.75,WSW,254,0.0,0.0,90,0.00,,,-99.99,Meteorologica,2013-05-21 10:37:00,
2013-05-21 05:42:00,55.1,52.5,29.75,West,269,5.3,7.8,90,0.00,,,-99.99,Meteorologica,2013-05-21 10:42:00,
2013-05-21 05:47:00,55.1,52.5,29.76,West,266,3.3,5.9,90,0.00,,,-99.99,Meteorologica,2013-05-21 10:47:00,
2013-05-21 05:52:00,55.1,52.4,29.76,SW,224,3.2,9.1,90,0.00,,,-99.99,Meteorologica,2013-05-21 10:52:00,
2013-05-21 05:57:00,55.0,52.4,29.77,West,279,6.8,10.0,91,0.00,,,-99.99,Meteorologica,2013-05-21 10:57:00,
2013-05-21 06:02:00,55.0,52.4,29.77,WSW,251,1.1,6.3,90,0.00,,,-99.99,Meteorologica,2013-05-21 11:02:00,
2013-05-21 06:07:00,54.8,52.2,29.77,West,266,4.5,8.1,91,0.00,,,-99.99,Meteorologica,2013-05-21 11:07:00,
2013-05-21 06:12:00,54.9,52.3,29.77,West,260,4.5,6.7,91,0.00,,,-99.99,Meteorologica,2013-05-21 11:12:00,
2013-05-21 06:17:00,54.8,52.2,29.78,NW,311,3.7,6.8,90,0.00,,,-99.99,Meteorologica,2013-05-21 11:17:00,
2013-05-21 06:22:00,54.7,52.1,29.78,NW,304,4.2,6.3,91,0.00,,,-99.99,Meteorologica,2013-05-21 11:22:00,
2013-05-21 06:27:00,54.7,52.1,29.78,WNW,296,5.6,7.4,91,0.00,,,-99.99,Meteorologica,2013-05-21 11:27:00,
2013-05-21 06:32:00,54.7,52.0,29.78,WNW,284,3.1,4.5,90,0.00,,,-99.99,Meteorologica,2013-05-21 11:32:00,
2013-05-21 06:37:00,54.9,52.1,29.77,NW,313,1.9,6.3,90,0.00,,,-99.99,Meteorologica,2013-05-21 11:37:00,
2013-05-21 06:42:00,55.1,52.2,29.78,WNW,292,2.1,4.8,90,0.00,,,-99.99,Meteorologica,2013-05-21 11:42:00,
2013-05-21 06:47:00,55.3,52.2,29.77,West,262,3.6,4.5,89,0.00,,,-99.99,Meteorologica,2013-05-21 11:47:00,
2013-05-21 06:52:00,55.5,52.2,29.78,West,269,3.5,6.4,88,0.00,,,-99.99,Meteorologica,2013-05-21 11:52:00,
2013-05-21 06:57:00,55.9,52.4,29.78,WNW,286,4.0,6.7,88,0.00,,,-99.99,Meteorologica,2013-05-21 11:57:00,
2013-05-21 07:02:00,56.1,52.5,29.79,NW,313,3.8,4.8,87,0.00,,,-99.99,Meteorologica,2013-05-21 12:02:00,
2013-05-21 07:07:00,56.3,52.5,29.78,NNW,330,4.0,6.1,87,0.00,,,-99.99,Meteorologica,2013-05-21 12:07:00,
2013-05-21 07:12:00,56.5,52.8,29.79,West,262,1.0,4.8,87,0.00,,,-99.99,Meteorologica,2013-05-21 12:12:00,
2013-05-21 07:17:00,56.8,53.0,29.79,WNW,296,2.8,6.3,87,0.00,,,-99.99,Meteorologica,2013-05-21 12:17:00,
2013-05-21 07:22:00,57.0,53.0,29.79,WNW,293,4.1,6.2,86,0.00,,,-99.99,Meteorologica,2013-05-21 12:22:00,
2013-05-21 07:27:00,57.2,53.0,29.79,WNW,282,6.7,10.0,86,0.00,,,-99.99,Meteorologica,2013-05-21 12:27:00,
2013-05-21 07:32:00,57.4,53.2,29.80,West,266,6.3,10.2,85,0.00,,,-99.99,Meteorologica,2013-05-21 12:32:00,
2013-05-21 07:37:00,57.5,52.8,29.79,WNW,294,7.1,11.2,84,0.00,,,-99.99,Meteorologica,2013-05-21 12:37:00,
2013-05-21 07:42:00,57.8,52.9,29.79,West,259,6.3,9.9,83,0.00,,,-99.99,Meteorologica,2013-05-21 12:42:00,
2013-05-21 07:47:00,58.0,52.8,29.78,NW,311,4.8,10.0,82,0.00,,,-99.99,Meteorologica,2013-05-21 12:47:00,
2013-05-21 07:52:00,58.3,52.7,29.78,West,264,4.7,7.9,81,0.00,,,-99.99,Meteorologica,2013-05-21 12:52:00,
2013-05-21 07:57:00,58.7,52.3,29.78,West,273,3.5,9.1,79,0.00,,,-99.99,Meteorologica,2013-05-21 12:57:00,
2013-05-21 08:02:00,59.0,52.7,29.78,West,262,2.0,5.0,79,0.00,,,-99.99,Meteorologica,2013-05-21 13:02:00,
2013-05-21 08:07:00,59.0,51.9,29.77,West,274,5.6,9.9,77,0.00,,,-99.99,Meteorologica,2013-05-21 13:07:00,
2013-05-21 08:12:00,59.1,52.2,29.77,West,269,2.3,9.6,77,0.00,,,-99.99,Meteorologica,2013-05-21 13:12:00,
2013-05-21 08:17:00,59.3,51.7,29.78,WNW,285,2.1,9.7,75,0.00,,,-99.99,Meteorologica,2013-05-21 13:17:00,
2013-05-21 08:22:00,59.6,52.5,29.78,NNE,12,0.0,4.4,77,0.00,,,-99.99,Meteorologica,2013-05-21 13:22:00,
2013-05-21 08:27:00,59.8,51.7,29.78,West,272,3.4,9.5,74,0.00,,,-99.99,Meteorologica,2013-05-21 13:27:00,
2013-05-21 08:32:00,60.1,51.9,29.78,WNW,290,1.3,4.9,74,0.00,,,-99.99,Meteorologica,2013-05-21 13:32:00,
2013-05-21 08:37:00,60.3,52.0,29.78,West,268,2.3,8.7,71,0.00,,,-99.99,Meteorologica,2013-05-21 13:37:00,
2013-05-21 08:42:00,60.2,51.8,29.78,WNW,286,4.0,14.8,72,0.00,,,-99.99,Meteorologica,2013-05-21 13:42:00,
2013-05-21 08:47:00,60.4,51.3,29.79,WNW,291,8.5,13.6,71,0.00,,,-99.99,Meteorologica,2013-05-21 13:47:00,
2013-05-21 08:52:00,60.6,50.4,29.79,NW,324,5.2,11.6,68,0.00,,,-99.99,Meteorologica,2013-05-21 13:52:00,
2013-05-21 08:57:00,61.1,51.4,29.79,WNW,287,1.7,7.3,70,0.00,,,-99.99,Meteorologica,2013-05-21 13:57:00,
2013-05-21 09:02:00,61.4,51.1,29.79,NW,307,5.7,8.1,68,0.00,,,-99.99,Meteorologica,2013-05-21 14:02:00,
2013-05-21 09:07:00,61.5,51.3,29.78,West,276,6.7,10.9,68,0.00,,,-99.99,Meteorologica,2013-05-21 14:07:00,
2013-05-21 09:12:00,61.6,50.9,29.78,NW,307,6.4,12.4,67,0.00,,,-99.99,Meteorologica,2013-05-21 14:12:00,
2013-05-21 09:17:00,61.8,51.9,29.78,West,260,5.5,9.7,69,0.00,,,-99.99,Meteorologica,2013-05-21 14:17:00,
2013-05-21 09:22:00,61.8,51.1,29.79,NW,308,6.8,16.1,67,0.00,,,-99.99,Meteorologica,2013-05-21 14:22:00,
2013-05-21 09:27:00,62.0,51.5,29.79,WNW,287,4.0,8.3,68,0.00,,,-99.99,Meteorologica,2013-05-21 14:27:00,
2013-05-21 09:32:00,62.4,51.6,29.78,WNW,291,5.7,11.5,67,0.00,,,-99.99,Meteorologica,2013-05-21 14:32:00,
2013-05-21 09:37:00,62.5,52.0,29.77,West,278,6.2,10.1,68,0.00,,,-99.99,Meteorologica,2013-05-21 14:37:00,
2013-05-21 09:42:00,62.6,51.4,29.78,WSW,248,6.3,12.2,66,0.00,,,-99.99,Meteorologica,2013-05-21 14:42:00,
2013-05-21 09:47:00,62.9,52.8,29.78,West,264,3.6,8.5,69,0.00,,,-99.99,Meteorologica,2013-05-21 14:47:00,
2013-05-21 09:52:00,62.9,51.5,29.78,WNW,298,6.1,10.5,66,0.00,,,-99.99,Meteorologica,2013-05-21 14:52:00,
2013-05-21 09:57:00,63.0,52.7,29.77,West,267,4.0,9.7,68,0.00,,,-99.99,Meteorologica,2013-05-21 14:57:00,
2013-05-21 10:02:00,63.4,51.9,29.77,WNW,297,1.2,11.8,65,0.00,,,-99.99,Meteorologica,2013-05-21 15:02:00,
2013-05-21 10:07:00,63.6,52.5,29.77,WSW,247,7.5,13.4,66,0.00,,,-99.99,Meteorologica,2013-05-21 15:07:00,
2013-05-21 10:12:00,63.6,52.4,29.77,WNW,286,4.9,11.3,66,0.00,,,-99.99,Meteorologica,2013-05-21 15:12:00,
2013-05-21 10:17:00,63.7,51.9,29.77,West,279,3.7,10.4,65,0.00,,,-99.99,Meteorologica,2013-05-21 15:17:00,
2013-05-21 10:22:00,64.0,52.6,29.77,NW,305,4.1,10.2,66,0.00,,,-99.99,Meteorologica,2013-05-21 15:22:00,
2013-05-21 10:27:00,63.8,51.5,29.78,West,272,6.2,11.5,63,0.00,,,-99.99,Meteorologica,2013-05-21 15:27:00,
2013-05-21 10:32:00,64.0,52.0,29.78,WNW,285,6.6,13.5,64,0.00,,,-99.99,Meteorologica,2013-05-21 15:32:00,
2013-05-21 10:37:00,64.2,51.3,29.78,West,274,6.7,8.5,62,0.00,,,-99.99,Meteorologica,2013-05-21 15:37:00,
2013-05-21 10:42:00,64.3,51.4,29.78,West,269,5.1,10.4,62,0.00,,,-99.99,Meteorologica,2013-05-21 15:42:00,
2013-05-21 10:47:00,64.8,52.5,29.78,West,273,4.6,9.3,63,0.00,,,-99.99,Meteorologica,2013-05-21 15:47:00,
2013-05-21 10:52:00,65.2,52.5,29.78,West,263,7.2,11.7,63,0.00,,,-99.99,Meteorologica,2013-05-21 15:52:00,
2013-05-21 10:57:00,65.4,51.9,29.78,West,260,6.1,8.4,61,0.00,,,-99.99,Meteorologica,2013-05-21 15:57:00,
2013-05-21 11:02:00,65.0,51.9,29.78,WNW,292,5.9,10.5,62,0.00,,,-99.99,Meteorologica,2013-05-21 16:02:00,
2013-05-21 11:07:00,65.2,51.7,29.78,North,351,3.6,14.7,61,0.00,,,-99.99,Meteorologica,2013-05-21 16:07:00,
2013-05-21 11:12:00,65.8,53.2,29.78,WSW,247,2.6,9.4,63,0.00,,,-99.99,Meteorologica,2013-05-21 16:12:00,
2013-05-21 11:17:00,65.7,52.8,29.78,WSW,247,4.2,13.5,62,0.00,,,-99.99,Meteorologica,2013-05-21 16:17:00,
2013-05-21 11:22:00,65.4,51.3,29.78,WNW,296,3.2,15.3,59,0.00,,,-99.99,Meteorologica,2013-05-21 16:22:00,
2013-05-21 11:27:00,65.0,50.4,29.78,WNW,283,6.1,10.2,58,0.00,,,-99.99,Meteorologica,2013-05-21 16:27:00,
2013-05-21 11:32:00,64.8,51.2,29.78,WNW,287,5.5,12.2,61,0.00,,,-99.99,Meteorologica,2013-05-21 16:32:00,
2013-05-21 11:37:00,64.9,52.4,29.78,WSW,247,1.3,8.2,63,0.00,,,-99.99,Meteorologica,2013-05-21 16:37:00,
2013-05-21 11:42:00,64.9,51.3,29.79,WNW,290,4.3,14.9,61,0.00,,,-99.99,Meteorologica,2013-05-21 16:42:00,
2013-05-21 11:47:00,65.4,51.5,29.79,ESE,107,7.5,11.5,60,0.00,,,-99.99,Meteorologica,2013-05-21 16:47:00,
2013-05-21 11:52:00,65.1,51.7,29.80,WNW,288,2.6,9.1,61,0.00,,,-99.99,Meteorologica,2013-05-21 16:52:00,
2013-05-21 11:57:00,65.1,51.2,29.80,West,281,9.1,15.2,60,0.00,,,-99.99,Meteorologica,2013-05-21 16:57:00,
2013-05-21 12:02:00,65.3,51.3,29.80,WSW,254,5.8,14.1,60,0.00,,,-99.99,Meteorologica,2013-05-21 17:02:00,
2013-05-21 12:07:00,65.3,51.2,29.79,WNW,295,7.3,12.2,59,0.00,,,-99.99,Meteorologica,2013-05-21 17:07:00,
2013-05-21 12:12:00,65.8,50.2,29.79,NW,306,5.6,9.9,56,0.00,,,-99.99,Meteorologica,2013-05-21 17:12:00,
2013-05-21 12:17:00,65.4,50.8,29.78,WNW,295,6.1,9.7,58,0.00,,,-99.99,Meteorologica,2013-05-21 17:17:00,
2013-05-21 12:22:00,65.4,50.9,29.79,WNW,302,4.1,12.5,58,0.00,,,-99.99,Meteorologica,2013-05-21 17:22:00,
2013-05-21 12:27:00,65.8,51.5,29.79,SSW,207,0.0,4.2,59,0.00,,,-99.99,Meteorologica,2013-05-21 17:27:00,
2013-05-21 12:32:00,66.0,50.9,29.78,WSW,250,2.5,6.6,58,0.00,,,-99.99,Meteorologica,2013-05-21 17:32:00,
2013-05-21 12:37:00,66.0,51.2,29.78,West,263,4.2,7.9,58,0.00,,,-99.99,Meteorologica,2013-05-21 17:37:00,
2013-05-21 12:42:00,65.8,51.1,29.79,SW,215,3.1,6.4,58,0.00,,,-99.99,Meteorologica,2013-05-21 17:42:00,
2013-05-21 12:47:00,65.7,51.3,29.79,West,272,1.3,7.4,59,0.00,,,-99.99,Meteorologica,2013-05-21 17:47:00,
2013-05-21 12:52:00,65.3,51.1,29.79,WNW,292,3.7,7.7,59,0.00,,,-99.99,Meteorologica,2013-05-21 17:52:00,
2013-05-21 12:57:00,65.2,50.3,29.79,WSW,251,3.1,12.1,58,0.00,,,-99.99,Meteorologica,2013-05-21 17:57:00,
2013-05-21 13:02:00,65.4,50.7,29.79,West,265,7.1,12.3,58,0.00,,,-99.99,Meteorologica,2013-05-21 18:02:00,
2013-05-21 13:07:00,65.3,51.1,29.78,WSW,250,3.3,12.3,60,0.00,,,-99.99,Meteorologica,2013-05-21 18:07:00,
2013-05-21 13:12:00,65.1,50.6,29.78,West,278,4.9,10.5,59,0.00,,,-99.99,Meteorologica,2013-05-21 18:12:00,
2013-05-21 13:17:00,64.8,50.4,29.78,WNW,299,4.9,11.5,59,0.00,,,-99.99,Meteorologica,2013-05-21 18:17:00,
2013-05-21 13:22:00,64.8,51.4,29.78,WNW,298,7.8,12.8,61,0.00,,,-99.99,Meteorologica,2013-05-21 18:22:00,
2013-05-21 13:27:00,65.7,51.6,29.79,WNW,287,3.3,12.5,60,0.00,,,-99.99,Meteorologica,2013-05-21 18:27:00,
2013-05-21 13:32:00,65.5,50.2,29.79,WNW,294,7.6,11.2,57,0.00,,,-99.99,Meteorologica,2013-05-21 18:32:00,
2013-05-21 13:37:00,65.2,50.6,29.78,West,279,7.8,13.0,58,0.00,,,-99.99,Meteorologica,2013-05-21 18:37:00,
2013-05-21 13:42:00,65.4,50.4,29.78,WSW,238,7.4,12.0,58,0.00,,,-99.99,Meteorologica,2013-05-21 18:42:00,
2013-05-21 13:47:00,65.8,50.8,29.78,WSW,249,6.1,11.5,58,0.00,,,-99.99,Meteorologica,2013-05-21 18:47:00,
2013-05-21 13:52:00,66.1,50.2,29.78,West,271,5.5,9.0,56,0.00,,,-99.99,Meteorologica,2013-05-21 18:52:00,
2013-05-21 13:57:00,66.0,49.5,29.78,West,272,8.7,13.3,55,0.00,,,-99.99,Meteorologica,2013-05-21 18:57:00,
2013-05-21 14:02:00,66.4,50.1,29.78,WNW,297,2.8,11.4,55,0.00,,,-99.99,Meteorologica,2013-05-21 19:02:00,
2013-05-21 14:07:00,66.8,50.7,29.77,West,275,5.7,10.5,56,0.00,,,-99.99,Meteorologica,2013-05-21 19:07:00,
2013-05-21 14:12:00,66.7,50.0,29.77,WNW,295,8.4,13.9,54,0.00,,,-99.99,Meteorologica,2013-05-21 19:12:00,
2013-05-21 14:17:00,66.5,50.2,29.79,WNW,289,6.9,14.1,55,0.00,,,-99.99,Meteorologica,2013-05-21 19:17:00,
2013-05-21 14:22:00,66.4,50.2,29.78,West,259,6.2,11.1,54,0.00,,,-99.99,Meteorologica,2013-05-21 19:22:00,
2013-05-21 14:27:00,66.3,49.8,29.78,WNW,295,6.4,11.5,55,0.00,,,-99.99,Meteorologica,2013-05-21 19:27:00,
2013-05-21 14:32:00,66.2,50.0,29.78,WNW,287,5.7,10.4,55,0.00,,,-99.99,Meteorologica,2013-05-21 19:32:00,
2013-05-21 14:37:00,66.7,50.5,29.78,West,271,5.0,9.8,55,0.00,,,-99.99,Meteorologica,2013-05-21 19:37:00,
2013-05-21 14:42:00,66.9,50.4,29.79,WNW,302,7.2,13.8,55,0.00,,,-99.99,Meteorologica,2013-05-21 19:42:00,
2013-05-21 14:47:00,66.6,50.4,29.78,WNW,287,9.4,14.3,55,0.00,,,-99.99,Meteorologica,2013-05-21 19:47:00,
2013-05-21 14:52:00,66.9,50.8,29.78,WNW,289,6.0,9.1,55,0.00,,,-99.99,Meteorologica,2013-05-21 19:52:00,
2013-05-21 14:57:00,67.2,50.0,29.79,WNW,289,4.6,11.7,53,0.00,,,-99.99,Meteorologica,2013-05-21 19:57:00,
2013-05-21 15:02:00,67.0,51.4,29.79,West,269,5.5,8.6,56,0.00,,,-99.99,Meteorologica,2013-05-21 20:02:00,
2013-05-21 15:07:00,67.0,51.4,29.79,WNW,293,0.5,6.8,57,0.00,,,-99.99,Meteorologica,2013-05-21 20:07:00,
2013-05-21 15:12:00,67.0,51.4,29.79,West,259,0.5,3.2,56,0.00,,,-99.99,Meteorologica,2013-05-21 20:12:00,
2013-05-21 15:17:00,66.6,50.8,29.79,WNW,283,5.1,9.7,56,0.00,,,-99.99,Meteorologica,2013-05-21 20:17:00,
2013-05-21 15:22:00,66.4,50.2,29.79,WNW,290,6.4,9.3,55,0.00,,,-99.99,Meteorologica,2013-05-21 20:22:00,
2013-05-21 15:27:00,66.7,51.2,29.79,WNW,285,6.6,11.8,57,0.00,,,-99.99,Meteorologica,2013-05-21 20:27:00,
2013-05-21 15:32:00,66.9,51.4,29.78,West,280,5.6,8.4,57,0.00,,,-99.99,Meteorologica,2013-05-21 20:32:00,
2013-05-21 15:37:00,67.0,50.8,29.78,West,274,6.9,10.1,55,0.00,,,-99.99,Meteorologica,2013-05-21 20:37:00,
2013-05-21 15:42:00,67.1,50.8,29.77,West,272,5.2,10.0,55,0.00,,,-99.99,Meteorologica,2013-05-21 20:42:00,
2013-05-21 15:47:00,67.2,49.8,29.77,West,278,5.9,10.0,53,0.00,,,-99.99,Meteorologica,2013-05-21 20:47:00,
2013-05-21 15:52:00,67.3,49.8,29.77,WNW,286,6.2,14.3,53,0.00,,,-99.99,Meteorologica,2013-05-21 20:52:00,
2013-05-21 15:57:00,67.7,50.4,29.77,WNW,289,5.9,9.9,53,0.00,,,-99.99,Meteorologica,2013-05-21 20:57:00,
2013-05-21 16:02:00,67.7,50.9,29.76,West,261,2.0,9.1,54,0.00,,,-99.99,Meteorologica,2013-05-21 21:02:00,
2013-05-21 16:07:00,67.8,51.3,29.76,West,281,1.8,8.9,55,0.00,,,-99.99,Meteorologica,2013-05-21 21:07:00,
2013-05-21 16:12:00,67.9,50.9,29.75,WNW,287,5.0,9.9,54,0.00,,,-99.99,Meteorologica,2013-05-21 21:12:00,
2013-05-21 16:17:00,67.9,50.6,29.75,West,269,1.9,10.4,53,0.00,,,-99.99,Meteorologica,2013-05-21 21:17:00,
2013-05-21 16:22:00,68.1,51.5,29.75,WSW,258,6.6,9.5,55,0.00,,,-99.99,Meteorologica,2013-05-21 21:22:00,
2013-05-21 16:27:00,68.3,51.0,29.75,WNW,284,4.8,10.0,53,0.00,,,-99.99,Meteorologica,2013-05-21 21:27:00,
2013-05-21 16:32:00,68.3,50.8,29.74,NW,304,4.5,12.3,53,0.00,,,-99.99,Meteorologica,2013-05-21 21:32:00,
2013-05-21 16:37:00,68.4,50.9,29.75,WNW,303,4.6,11.0,53,0.00,,,-99.99,Meteorologica,2013-05-21 21:37:00,
2013-05-21 16:42:00,69.0,52.1,29.75,WSW,242,2.8,11.8,54,0.00,,,-99.99,Meteorologica,2013-05-21 21:42:00,
2013-05-21 16:47:00,69.4,51.4,29.75,WNW,295,4.8,9.6,52,0.00,,,-99.99,Meteorologica,2013-05-21 21:47:00,
2013-05-21 16:52:00,69.8,53.2,29.75,West,276,4.4,9.9,55,0.00,,,-99.99,Meteorologica,2013-05-21 21:52:00,
2013-05-21 16:57:00,70.5,51.7,29.75,WNW,298,5.9,13.0,51,0.00,,,-99.99,Meteorologica,2013-05-21 21:57:00,
2013-05-21 17:02:00,69.9,51.3,29.74,West,270,4.8,10.9,51,0.00,,,-99.99,Meteorologica,2013-05-21 22:02:00,
2013-05-21 17:07:00,69.8,51.8,29.74,WNW,303,3.9,13.3,52,0.00,,,-99.99,Meteorologica,2013-05-21 22:07:00,
2013-05-21 17:12:00,69.8,51.3,29.74,West,273,4.1,9.7,51,0.00,,,-99.99,Meteorologica,2013-05-21 22:12:00,
2013-05-21 17:17:00,69.9,51.2,29.74,West,265,6.7,12.5,51,0.00,,,-99.99,Meteorologica,2013-05-21 22:17:00,
2013-05-21 17:22:00,70.0,51.8,29.73,West,276,3.2,13.6,51,0.00,,,-99.99,Meteorologica,2013-05-21 22:22:00,
2013-05-21 17:27:00,70.1,51.0,29.73,West,270,8.0,13.0,50,0.00,,,-99.99,Meteorologica,2013-05-21 22:27:00,
2013-05-21 17:32:00,70.0,51.2,29.73,West,269,7.9,12.4,50,0.00,,,-99.99,Meteorologica,2013-05-21 22:32:00,
2013-05-21 17:37:00,70.0,51.4,29.73,West,273,1.5,6.6,52,0.00,,,-99.99,Meteorologica,2013-05-21 22:37:00,
2013-05-21 17:42:00,70.3,51.8,29.73,WNW,289,7.7,13.1,50,0.00,,,-99.99,Meteorologica,2013-05-21 22:42:00,
2013-05-21 17:47:00,70.0,51.9,29.73,WNW,289,7.0,10.1,52,0.00,,,-99.99,Meteorologica,2013-05-21 22:47:00,
2013-05-21 17:52:00,69.5,51.6,29.73,WSW,249,5.1,10.7,52,0.00,,,-99.99,Meteorologica,2013-05-21 22:52:00,
2013-05-21 17:57:00,69.2,52.5,29.73,NW,320,2.8,10.0,55,0.00,,,-99.99,Meteorologica,2013-05-21 22:57:00,
2013-05-21 18:02:00,69.5,52.3,29.72,WNW,302,0.2,0.0,54,0.00,,,-99.99,Meteorologica,2013-05-21 23:02:00,
2013-05-21 18:07:00,69.6,52.2,29.72,WSW,244,3.0,7.7,53,0.00,,,-99.99,Meteorologica,2013-05-21 23:07:00,
2013-05-21 18:12:00,69.6,50.9,29.72,West,261,4.2,11.0,51,0.00,,,-99.99,Meteorologica,2013-05-21 23:12:00,
2013-05-21 18:17:00,69.4,51.1,29.72,West,259,3.6,8.7,52,0.00,,,-99.99,Meteorologica,2013-05-21 23:17:00,
2013-05-21 18:22:00,68.8,50.4,29.73,NW,304,5.0,11.7,51,0.00,,,-99.99,Meteorologica,2013-05-21 23:22:00,
2013-05-21 18:27:00,68.7,51.7,29.73,WSW,256,0.0,4.2,54,0.00,,,-99.99,Meteorologica,2013-05-21 23:27:00,
2013-05-21 18:32:00,68.7,50.9,29.73,West,277,6.1,10.3,52,0.00,,,-99.99,Meteorologica,2013-05-21 23:32:00,
2013-05-21 18:37:00,68.7,51.2,29.73,West,275,3.6,9.3,53,0.00,,,-99.99,Meteorologica,2013-05-21 23:37:00,
2013-05-21 18:42:00,68.8,51.6,29.73,West,259,0.5,5.5,54,0.00,,,-99.99,Meteorologica,2013-05-21 23:42:00,
2013-05-21 18:47:00,68.4,51.5,29.73,North,349,5.4,9.8,54,0.00,,,-99.99,Meteorologica,2013-05-21 23:47:00,
2013-05-21 18:52:00,68.3,52.8,29.73,NW,313,1.3,3.5,57,0.00,,,-99.99,Meteorologica,2013-05-21 23:52:00,
2013-05-21 18:57:00,68.1,52.1,29.73,North,359,1.0,12.1,56,0.00,,,-99.99,Meteorologica,2013-05-21 23:57:00,
2013-05-21 19:02:00,68.1,52.1,29.73,SW,232,0.0,8.4,56,0.00,,,-99.99,Meteorologica,2013-05-22 00:02:00,
2013-05-21 19:07:00,68.4,51.8,29.73,NW,314,0.6,4.3,55,0.00,,,-99.99,Meteorologica,2013-05-22 00:07:00,
2013-05-21 19:12:00,68.2,52.0,29.73,West,261,1.9,5.5,55,0.00,,,-99.99,Meteorologica,2013-05-22 00:12:00,
2013-05-21 19:17:00,68.4,51.9,29.74,West,280,1.0,4.8,55,0.00,,,-99.99,Meteorologica,2013-05-22 00:17:00,
2013-05-21 19:22:00,68.2,51.5,29.74,NW,317,1.7,9.5,55,0.00,,,-99.99,Meteorologica,2013-05-22 00:22:00,
2013-05-21 19:27:00,67.8,50.7,29.74,WNW,282,5.1,9.0,56,0.00,,,-99.99,Meteorologica,2013-05-22 00:27:00,
2013-05-21 19:32:00,67.7,51.6,29.74,SW,232,3.3,6.3,55,0.00,,,-99.99,Meteorologica,2013-05-22 00:32:00,
2013-05-21 19:37:00,67.3,51.6,29.74,West,265,3.2,8.3,57,0.00,,,-99.99,Meteorologica,2013-05-22 00:37:00,
2013-05-21 19:42:00,67.2,51.9,29.74,West,259,0.0,3.4,57,0.00,,,-99.99,Meteorologica,2013-05-22 00:42:00,
2013-05-21 19:47:00,66.9,51.8,29.75,WNW,301,2.9,7.5,57,0.00,,,-99.99,Meteorologica,2013-05-22 00:47:00,
2013-05-21 19:52:00,66.6,52.1,29.75,WNW,285,0.0,0.0,59,0.00,,,-99.99,Meteorologica,2013-05-22 00:52:00,
2013-05-21 19:57:00,66.3,52.3,29.75,NW,319,0.0,4.7,60,0.00,,,-99.99,Meteorologica,2013-05-22 00:57:00,
2013-05-21 20:02:00,66.1,52.1,29.75,NW,304,1.5,3.5,60,0.00,,,-99.99,Meteorologica,2013-05-22 01:02:00,
2013-05-21 20:07:00,65.7,51.7,29.75,West,272,3.2,8.7,60,0.00,,,-99.99,Meteorologica,2013-05-22 01:07:00,
2013-05-21 20:12:00,65.4,51.9,29.75,WNW,293,0.0,5.3,61,0.00,,,-99.99,Meteorologica,2013-05-22 01:12:00,
2013-05-21 20:17:00,65.2,52.2,29.75,WNW,297,1.9,6.1,62,0.00,,,-99.99,Meteorologica,2013-05-22 01:17:00,
2013-05-21 20:22:00,64.8,51.9,29.75,NW,316,0.3,10.5,62,0.00,,,-99.99,Meteorologica,2013-05-22 01:22:00,
2013-05-21 20:27:00,64.4,52.0,29.75,West,271,0.2,0.0,63,0.00,,,-99.99,Meteorologica,2013-05-22 01:27:00,
2013-05-21 20:32:00,64.1,52.1,29.75,WNW,282,0.0,0.0,64,0.00,,,-99.99,Meteorologica,2013-05-22 01:32:00,
2013-05-21 20:37:00,63.7,51.8,29.75,West,276,0.0,0.0,64,0.00,,,-99.99,Meteorologica,2013-05-22 01:37:00,
2013-05-21 20:42:00,63.4,51.8,29.75,West,276,0.0,0.0,65,0.00,,,-99.99,Meteorologica,2013-05-22 01:42:00,
2013-05-21 20:47:00,63.1,51.9,29.75,WNW,296,0.0,0.0,66,0.00,,,-99.99,Meteorologica,2013-05-22 01:47:00,
2013-05-21 20:52:00,62.7,52.0,29.76,West,278,1.0,5.2,67,0.00,,,-99.99,Meteorologica,2013-05-22 01:52:00,
2013-05-21 20:57:00,62.5,51.9,29.75,North,11,0.0,3.0,68,0.00,,,-99.99,Meteorologica,2013-05-22 01:57:00,
2013-05-21 21:02:00,62.3,52.0,29.75,North,11,0.0,0.0,68,0.00,,,-99.99,Meteorologica,2013-05-22 02:02:00,
2013-05-21 21:07:00,62.1,52.2,29.75,North,11,0.0,0.0,69,0.00,,,-99.99,Meteorologica,2013-05-22 02:07:00,
2013-05-21 21:12:00,61.8,51.9,29.75,North,11,0.0,0.0,69,0.00,,,-99.99,Meteorologica,2013-05-22 02:12:00,
2013-05-21 21:17:00,61.6,52.0,29.75,North,11,0.0,0.0,70,0.00,,,-99.99,Meteorologica,2013-05-22 02:17:00,
2013-05-21 21:22:00,61.3,52.0,29.75,North,11,0.0,0.0,71,0.00,,,-99.99,Meteorologica,2013-05-22 02:22:00,
2013-05-21 21:27:00,61.1,52.1,29.75,North,357,0.0,4.2,71,0.00,,,-99.99,Meteorologica,2013-05-22 02:27:00,
2013-05-21 21:32:00,61.1,52.4,29.76,North,357,0.0,0.0,73,0.00,,,-99.99,Meteorologica,2013-05-22 02:32:00,
2013-05-21 21:37:00,61.0,52.1,29.77,North,357,0.0,0.0,72,0.00,,,-99.99,Meteorologica,2013-05-22 02:37:00,
2013-05-21 21:42:00,61.0,52.3,29.76,North,357,0.0,0.0,72,0.00,,,-99.99,Meteorologica,2013-05-22 02:42:00,
2013-05-21 21:47:00,61.0,52.4,29.76,North,357,0.0,0.0,72,0.00,,,-99.99,Meteorologica,2013-05-22 02:47:00,
2013-05-21 21:52:00,61.0,52.4,29.77,North,357,0.0,0.0,72,0.00,,,-99.99,Meteorologica,2013-05-22 02:52:00,
2013-05-21 21:57:00,61.1,52.5,29.77,North,357,0.0,0.0,73,0.00,,,-99.99,Meteorologica,2013-05-22 02:57:00,
2013-05-21 22:02:00,61.2,52.7,29.77,North,357,0.0,0.0,73,0.00,,,-99.99,Meteorologica,2013-05-22 03:02:00,
2013-05-21 22:07:00,61.2,52.7,29.76,North,357,0.0,0.0,73,0.00,,,-99.99,Meteorologica,2013-05-22 03:07:00,
2013-05-21 22:12:00,61.3,52.7,29.77,WNW,289,0.5,2.5,73,0.00,,,-99.99,Meteorologica,2013-05-22 03:12:00,
2013-05-21 22:17:00,61.3,52.5,29.77,SW,215,0.0,0.0,72,0.00,,,-99.99,Meteorologica,2013-05-22 03:17:00,
2013-05-21 22:22:00,61.4,52.9,29.77,SW,215,0.0,0.0,73,0.00,,,-99.99,Meteorologica,2013-05-22 03:22:00,
2013-05-21 22:27:00,61.3,52.7,29.78,SW,215,0.3,2.9,73,0.00,,,-99.99,Meteorologica,2013-05-22 03:27:00,
2013-05-21 22:33:00,61.2,52.7,29.77,SW,215,0.0,0.0,73,0.00,,,-99.99,Meteorologica,2013-05-22 03:33:00,
2013-05-21 22:38:00,61.2,52.8,29.77,NNW,328,0.0,1.3,73,0.00,,,-99.99,Meteorologica,2013-05-22 03:38:00,
2013-05-21 22:43:00,61.0,52.8,29.78,NNW,328,0.0,0.0,74,0.00,,,-99.99,Meteorologica,2013-05-22 03:43:00,
2013-05-21 22:48:00,60.9,52.8,29.78,NW,313,0.0,2.7,74,0.00,,,-99.99,Meteorologica,2013-05-22 03:48:00,
2013-05-21 22:53:00,60.7,52.6,29.78,NW,313,0.0,0.0,74,0.00,,,-99.99,Meteorologica,2013-05-22 03:53:00,
2013-05-21 22:58:00,60.4,52.3,29.79,WSW,251,1.1,5.5,74,0.00,,,-99.99,Meteorologica,2013-05-22 03:58:00,
2013-05-21 23:02:00,60.3,52.6,29.79,WSW,251,0.0,0.0,75,0.00,,,-99.99,Meteorologica,2013-05-22 04:02:00,
2013-05-21 23:03:00,60.2,52.4,29.79,WSW,251,0.0,0.0,75,0.00,,,-99.99,Meteorologica,2013-05-22 04:03:00,
2013-05-21 23:04:00,60.2,52.5,29.79,WSW,251,0.0,0.0,75,0.00,,,-99.99,Meteorologica,2013-05-22 04:04:00,
2013-05-21 23:05:00,60.2,52.5,29.79,WSW,251,0.0,0.0,75,0.00,,,-99.99,Meteorologica,2013-05-22 04:05:00,
2013-05-21 23:10:00,60.0,52.4,29.79,NNW,340,0.0,0.0,75,0.00,,,-99.99,Meteorologica,2013-05-22 04:10:00,
2013-05-21 23:13:00,59.9,52.4,29.79,NNW,340,0.0,0.0,76,0.00,,,-99.99,Meteorologica,2013-05-22 04:13:00,
2013-05-21 23:18:00,59.9,52.4,29.79,NNW,340,0.0,0.0,76,0.00,,,-99.99,Meteorologica,2013-05-22 04:18:00,
2013-05-21 23:23:00,59.9,52.3,29.79,NNW,340,0.0,0.0,75,0.00,,,-99.99,Meteorologica,2013-05-22 04:23:00,
2013-05-21 23:28:00,59.8,52.5,29.79,NNE,26,0.0,0.0,76,0.00,,,-99.99,Meteorologica,2013-05-22 04:28:00,
2013-05-21 23:33:00,59.9,52.5,29.79,NNE,26,0.0,0.0,76,0.00,,,-99.99,Meteorologica,2013-05-22 04:33:00,
2013-05-21 23:38:00,59.9,52.5,29.80,NNE,26,0.0,0.0,76,0.00,,,-99.99,Meteorologica,2013-05-22 04:38:00,
2013-05-21 23:43:00,59.8,52.4,29.80,NNE,26,0.0,0.0,76,0.00,,,-99.99,Meteorologica,2013-05-22 04:43:00,
2013-05-21 23:48:00,59.5,52.3,29.80,NNE,26,0.0,0.0,76,0.00,,,-99.99,Meteorologica,2013-05-22 04:48:00,
2013-05-21 23:53:00,59.4,52.3,29.80,NNE,26,0.0,0.0,77,0.00,,,-99.99,Meteorologica,2013-05-22 04:53:00,
2013-05-21 23:58:00,59.2,52.3,29.80,NNE,26,0.0,0.0,77,0.00,,,-99.99,Meteorologica,2013-05-22 04:58:00,